Location: Bli��� Lhota
(48.7570°N, 14.0120°E)
Time: 07:50:27
(UTC+00:00)

Cosmos 2285 Rocket - Pass Details

Date: 18 September 2020
Orbit: 970 x 1000 km, 74.0° (Epoch: 27 October)

Event Time Altitude Azimuth Distance (km) Brightness Sun altitude
Rises 19:32:40 0° 196° (SSW) 3,652 6.8 -23.1°
Reaches altitude 10° 19:35:11 10° 195° (SSW) 2,710 6.1 -23.5°
Maximum altitude 19:41:27 79° 110° (ESE) 1,000 3.8 -24.4°
Drops below altitude 10° 19:47:49 10° 25° (NNE) 2,745 6.5 -25.2°
Sets 19:50:22 0° 25° (NNE) 3,702 7.2 -25.6°
